Regional Weather Roundup
Issued by NWS Newport/Morehead, NC

Current Version | Previous Version | Graphics & Text | Print | Product List | Glossary On
Versions: 1 2 3 4 5 6 7 8 9 10 11 12 13 14 15 16 17 18 19 20 21 22 23 24 25 26 27 28 29 30 31 32 33 34 35 36 37 38 39 40 41 42 43 44 45 46 47 48 49 50
000 ASUS42 KMHX 041513 RWRMHX WEATHER ROUNDUP FOR EASTERN NORTH CAROLINA NATIONAL WEATHER SERVICE NEWPORT/MOREHEAD CITY NC 1100 AM EDT WED MAY 04 2016 NOTE: "FAIR" INDICATES FEW OR NO CLOUDS BELOW 12,000 FEET WITH NO SIGNIFICANT WEATHER AND/OR OBSTRUCTIONS TO VISIBILITY NCZ015>017-031-032-045>047-102-103-041600- NORTH COAST CITY SKY/WX TMP DP RH WIND PRES REMARKS EDENTON CLOUDY 60 60 100 NE6 29.69R FOG ELIZABETH CITY CLOUDY 60 57 89 N10 29.68F KITTY HAWK CLOUDY 60 60 100 NE5 29.65S FOG MANTEO CLOUDY 62 61 97 E6 29.67R $$ NCZ045>047-081-094-103-104-041600- CENTRAL COAST CITY SKY/WX TMP DP RH WIND PRES REMARKS FRISCO LGT RAIN 68 66 93 S5 29.66S FOG SWANQUARTER NOT AVBL $$ NCZ095-097-098-100-101-041600- SOUTHERN COAST CITY SKY/WX TMP DP RH WIND PRES REMARKS BEAUFORT CLOUDY 69 67 93 SW13 29.67S CEDAR ISLAND NOT AVBL JACKSONVILLE PTSUNNY 73 64 73 W5 29.66S PINEY ISLAND NOT AVBL WILMINGTON LGT RAIN 71 67 87 VRB5 29.67F $$ NCZ011>013-027>030-043-044-078>080-089-090>093-098-041600- COASTAL PLAIN CITY SKY/WX TMP DP RH WIND PRES REMARKS AHOSKIE CLOUDY 62 61 94 N6 29.69S CLINTON PTSUNNY 67 62 85 N3 29.69S ELIZABETHTOWN CLOUDY 68 61 77 CALM 29.68S GOLDSBORO CLOUDY 66 66 100 E5 29.67R GREENVILLE CLOUDY 66 63 88 NW3 29.71R HAVELOCK CLOUDY 69 66 90 S5 29.67F KENANSVILLE CLOUDY 66 61 84 NW5 29.70R KINSTON NOT AVBL NEW BERN PTSUNNY 70 65 84 SW5 29.68S RICHLANDS CLOUDY 70 66 87 CALM 29.68R ROCKY MOUNT CLOUDY 63 61 93 NW5 29.69S WASHINGTON PTSUNNY 66 62 89 NW5 29.67R WHITEVILLE NOT AVBL $$ AMZ130-135-150-152-154-156-158-170-250-252-270-ANZ085-086-088-633-658-670-041600- MARINE OBSERVATIONS STATION/POSITION TIME TEMP WIND PRES WAVE SWELL AIR SEA DIR/SP/G HT/PER HT/PER (UTC) (F) (DEG/KT/KT) (MB) (FT/S) (FT/S) CHESAPEAKE LIGHT 1400 53 40/ 8/ 9 1006.2 64 E VA BEACH 1450 56 55 10/ 2/ 2 1004.3 5/ 6 5/ 6 DUCK 1418 56 10/ 7/ 8 1004.2 2 E DUCK 1411 58 N/A 3/ 7 OREGON INLET 1400 62 67 50/ 3/ 6 1004.3 13E OREGON INLT 1500 64 N/A 3/ 7 3/ 7 HATTERAS CG 1400 68 69 290/ 9/ 10 1004.3 DIAMOND BUOY 1450 70 71 260/ 10/ 12 1004.6 4/ 8 3/ 8 CAPE LOOKOUT 1500 65 210/ 6/ 8 1004.6 BEAUFORT LAB 1400 68 67 220/ 4/ 7 1003.9 30 SE NEW RVR IN 1425 73 N/A 5/ 7 27 SE WRIGHTSVLE 1408 70 72 240/ 12/ 16 1004.3 5 SE WRIGHTSVLE 1408 69 69 250/ 8/ 10 1005.5 225 S CAPE HAT 1450 72 74 140/ 12/ 14 1007.4 5/ 7 3/ 7 41 SE CHARLESTON 1450 72 74 270/ 14/ 16 1005.8 3/ 7 2/ 7 $$

USA.gov is the U.S. government's official web portal to all federal, state and local government web resources and services.